Location: Laterina
(43.5167°N, 11.7167°E)
Time: 15:55:58
(UTC+00:00)

COSMO-SKYMED 1 - Pass Details

Date: 24 September 2020
Orbit: 621 x 623 km, 97.9° (Epoch: 26 October)

Event Time Altitude Azimuth Distance (km) Brightness Sun altitude
Rises 17:44:25 0° 8° (N) 2,913 6.0 -7.7°
Reaches altitude 10° 17:46:39 10° 3° (N) 2,002 5.2 -8.1°
Maximum altitude 17:50:53 52° 288° (WNW) 775 3.6 -8.9°
Drops below altitude 10° 17:55:05 10° 212° (SSW) 1,986 5.5 -9.7°
Sets 17:57:17 0° 207° (SSW) 2,887 6.2 -10.1°
